GW3846 Weather Reports


time (UTC)temp
F
wind
direction
speed
knots
gust
knots
rain 1hr
in
rain 24hr
in
rain mn
in
humidity
%
barometer
mb
20260503050527 37 277 0.9 3.5 0.00 0.01 0.00 79 1012.0
20260503050042 37 282 0.9 2.6 0.00 0.04 0.00 79 1012.0
20260503045520 37 275 0.0 1.7 0.00 0.04 0.00 80 1012.0
20260503045038 37 266 0.0 2.6 0.00 0.04 0.00 80 1012.0
20260503044515 37 290 0.9 2.6 0.00 0.04 0.00 80 1012.1
20260503044034 37 263 0.0 1.7 0.00 0.04 0.00 81 1012.2
20260503043510 36 263 0.0 2.6 0.00 0.04 0.00 81 1012.2
20260503043027 36 280 0.0 3.5 0.00 0.04 0.00 81 1012.2
20260503042505 36 289 0.0 3.5 0.00 0.04 0.00 81 1012.2
20260503042025 36 277 0.0 1.7 0.00 0.04 0.00 81 1012.2
20260503041600 36 279 0.0 3.5 0.00 0.04 0.00 81 1012.2
20260503041506 36 279 0.0 3.5 0.00 0.04 0.00 81 1012.4
20260503041040 37 279 0.0 1.7 0.00 0.04 0.00 81 1012.3
20260503040520 37 275 0.0 1.7 0.00 0.04 0.00 80 1012.2
20260503040050 37 275 0.0 0.9 0.00 0.04 0.04 80 1012.3
20260503035511 37 275 0.0 0.9 0.00 0.04 0.04 80 1012.3
20260503035047 37 275 0.0 2.6 0.00 0.04 0.04 79 1012.3
20260503034557 37 275 0.0 2.6 0.00 0.04 0.04 79 1012.3
20260503034037 37 302 0.0 2.6 0.00 0.04 0.04 79 1012.3
20260503033552 37 265 0.9 2.6 0.00 0.04 0.04 78 1012.4
20260503033035 37 275 0.0 1.7 0.00 0.04 0.04 79 1012.4
20260503032553 38 275 0.0 1.7 0.00 0.04 0.04 79 1012.4
20260503032033 38 276 0.0 2.6 0.00 0.04 0.04 78 1012.3
20260503031507 37 276 0.0 2.6 0.00 0.04 0.04 78 1012.3
20260503031031 37 282 0.0 1.7 0.00 0.04 0.04 78 1012.3
20260503030506 37 281 0.0 1.7 0.00 0.04 0.04 78 1012.3
20260503030027 37 282 0.0 0.9 0.00 0.04 0.04 78 1012.4
20260503025559 37 282 0.0 0.0 0.00 0.04 0.04 78 1012.2
20260503025505 37 282 0.0 0.0 0.00 0.04 0.04 78 1012.4
20260503025043 36 282 0.0 0.0 0.00 0.04 0.04 78 1012.4
20260503024623 37 282 0.0 0.0 0.00 0.04 0.04 77 1012.3
20260503024039 37 282 0.0 0.0 0.00 0.04 0.04 77 1012.3
20260503023556 37 282 0.0 0.0 0.00 0.04 0.04 76 1012.4
20260503023037 37 282 0.0 0.0 0.00 0.04 0.04 75 1012.4
20260503022512 37 282 0.0 0.0 0.00 0.04 0.04 75 1012.3
20260503022032 37 282 0.0 0.0 0.00 0.04 0.04 74 1012.3
20260503021508 38 282 0.0 0.0 0.00 0.04 0.04 73 1012.2
20260503021027 38 282 0.0 0.0 0.00 0.04 0.04 72 1012.3
20260503020503 38 282 0.0 0.0 0.00 0.04 0.04 72 1012.2
20260503020046 39 282 0.0 0.0 0.00 0.04 0.04 71 1012.3
20260503015522 39 281 0.0 0.0 0.00 0.04 0.04 71 1012.3
20260503015055 39 282 0.0 0.0 0.00 0.04 0.04 70 1012.3
20260503014540 40 282 0.0 0.0 0.00 0.04 0.04 69 1012.3
20260503014013 40 282 0.0 0.0 0.00 0.04 0.04 69 1012.3
20260503013550 40 282 0.0 0.0 0.00 0.04 0.04 68 1012.3
20260503013028 41 281 0.0 0.0 0.00 0.04 0.04 67 1012.3
20260503012600 41 282 0.0 0.0 0.00 0.04 0.04 67 1012.3
20260503012501 41 281 0.0 0.0 0.00 0.04 0.04 67 1012.4
20260503012040 41 282 0.0 0.0 0.00 0.04 0.04 67 1012.2
20260503011520 41 282 0.0 0.9 0.00 0.04 0.04 66 1012.3
20260503011052 41 282 0.0 0.9 0.00 0.04 0.04 66 1012.3
20260503010533 42 282 0.0 0.9 0.00 0.04 0.04 65 1012.2
20260503010007 42 282 0.0 0.9 0.00 0.04 0.04 65 1012.3
20260503005543 42 282 0.0 0.9 0.00 0.04 0.04 64 1012.3
20260503005057 43 281 0.0 2.6 0.00 0.04 0.04 62 1012.2
20260503004542 43 310 0.0 2.6 0.00 0.04 0.04 63 1012.3
20260503004052 43 276 0.9 3.5 0.00 0.04 0.04 62 1012.2
20260503003528 43 284 0.9 3.5 0.00 0.04 0.04 61 1012.2
20260503003011 43 325 0.9 5.2 0.00 0.04 0.04 61 1012.1
20260503002547 44 282 0.9 5.2 0.00 0.04 0.04 61 1012.0
20260503002029 44 313 1.7 6.1 0.00 0.04 0.04 60 1012.0
20260503001503 44 273 0.9 2.6 0.00 0.04 0.04 61 1011.9
20260503001044 44 286 0.0 1.7 0.00 0.04 0.04 61 1012.0
20260503000524 44 331 0.0 6.1 0.00 0.04 0.04 60 1011.9
20260503000107 45 278 1.7 6.1 0.00 0.04 0.04 59 1011.9
20260502235536 45 306 1.7 5.2 0.00 0.04 0.04 59 1011.9
20260502235017 45 298 0.9 7.0 0.00 0.04 0.04 57 1011.9
20260502234606 45 261 1.7 7.0 0.00 0.04 0.04 57 1012.0
20260502234031 46 326 0.9 8.7 0.00 0.04 0.04 56 1011.9
20260502233507 46 351 0.9 8.7 0.00 0.04 0.04 55 1011.9
20260502233059 46 288 1.7 12.2 0.00 0.04 0.04 54 1011.8
20260502232520 47 277 2.6 12.2 0.00 0.04 0.04 53 1011.8
20260502232055 47 283 1.7 9.6 0.00 0.04 0.04 53 1011.8
20260502231554 47 344 1.7 7.0 0.00 0.04 0.04 52 1011.7
20260502231055 47 355 1.7 8.7 0.00 0.04 0.04 54 1011.7
20260502230535 47 302 2.6 8.7 0.00 0.04 0.04 53 1011.7
20260502230049 47 343 2.6 7.8 0.00 0.04 0.04 54 1011.8
20260502225528 47 302 1.7 7.8 0.00 0.04 0.04 52 1011.8
20260502225014 48 346 1.7 11.3 0.00 0.04 0.04 52 1011.7
20260502224550 48 319 1.7 12.2 0.00 0.04 0.04 51 1011.5
20260502224026 49 322 0.9 5.2 0.00 0.04 0.04 51 1011.7
20260502223507 49 309 0.9 10.4 0.00 0.04 0.04 49 1011.5
20260502223049 49 9 2.6 11.3 0.00 0.04 0.04 48 1011.5
20260502222521 50 277 2.6 11.3 0.00 0.04 0.04 48 1011.5
20260502222054 49 299 2.6 12.2 0.00 0.04 0.04 48 1011.4
20260502221535 49 12 3.5 12.2 0.00 0.04 0.04 50 1011.3
20260502221057 49 11 1.7 6.1 0.00 0.04 0.04 49 1011.4
20260502220531 49 350 1.7 8.7 0.00 0.04 0.04 52 1011.4
20260502220009 49 279 1.7 8.7 0.00 0.04 0.04 50 1011.4
20260502215531 49 290 4.3 8.7 0.00 0.04 0.04 50 1011.4
20260502215009 50 266 1.7 7.0 0.00 0.04 0.04 49 1011.4
20260502214529 51 336 1.7 7.0 0.00 0.04 0.04 49 1011.4
20260502214010 52 342 2.6 7.0 0.00 0.04 0.04 46 1011.4
20260502213546 52 11 1.7 6.1 0.00 0.04 0.04 47 1011.3
20260502213023 52 5 1.7 8.7 0.00 0.04 0.04 51 1011.3
20260502212558 51 343 1.7 8.7 0.00 0.04 0.04 49 1011.3
20260502212042 51 333 2.6 7.8 0.00 0.04 0.04 50 1011.2
20260502211554 51 348 1.7 9.6 0.00 0.04 0.04 49 1011.2
20260502211032 51 5 1.7 14.8 0.00 0.04 0.04 50 1011.1
20260502210508 51 277 5.2 14.8 0.00 0.04 0.04 45 1011.1
20260502210028 52 276 0.9 9.6 0.00 0.04 0.04 49 1011.0
20260502205603 53 360 3.5 9.6 0.00 0.04 0.04 45 1011.1
20260502205510 53 11 3.5 9.6 0.00 0.04 0.04 46 1011.1
20260502205042 53 271 2.6 7.8 0.00 0.04 0.04 46 1011.1
20260502204520 53 265 1.7 13.0 0.00 0.04 0.04 46 1011.2
20260502204056 52 10 3.5 13.0 0.00 0.04 0.04 48 1011.1
20260502203521 53 273 3.5 10.4 0.00 0.04 0.04 45 1011.1
20260502203100 53 266 3.5 8.7 0.00 0.04 0.04 46 1011.2
20260502202510 53 350 1.7 13.0 0.00 0.04 0.04 46 1011.2
20260502202044 53 286 4.3 12.2 0.00 0.04 0.04 46 1011.1
20260502201524 53 280 4.3 12.2 0.00 0.04 0.04 46 1011.2
20260502201058 53 298 5.2 12.2 0.00 0.04 0.04 44 1011.2
20260502200535 53 338 3.5 11.3 0.00 0.04 0.04 45 1011.4
20260502200013 53 281 6.1 13.0 0.00 0.04 0.04 45 1011.3
20260502195553 53 346 4.3 13.0 0.00 0.04 0.04 45 1011.4
20260502195032 53 306 2.6 11.3 0.00 0.04 0.04 45 1011.4
20260502194510 53 336 3.5 13.0 0.00 0.04 0.04 44 1011.5
20260502194044 53 289 4.3 13.0 0.00 0.04 0.04 44 1011.7
20260502193524 53 355 4.3 11.3 0.00 0.04 0.04 45 1011.4
20260502193100 53 9 2.6 11.3 0.00 0.04 0.04 43 1011.5
20260502193002 53 23 2.6 11.3 0.00 0.04 0.04 44 1011.7
20260502192516 53 279 3.5 11.3 0.00 0.04 0.04 48 1011.6
20260502192047 52 315 1.7 11.3 0.00 0.04 0.04 48 1011.6
20260502191536 52 313 3.5 11.3 0.00 0.04 0.04 47 1011.7
20260502191058 53 276 2.6 8.7 0.00 0.04 0.04 50 1011.7
20260502190538 53 5 2.6 10.4 0.00 0.04 0.04 53 1011.8
20260502190018 52 345 1.7 10.4 0.00 0.04 0.04 50 1011.9
20260502185551 52 338 3.5 10.4 0.00 0.04 0.04 51 1011.8
20260502185025 52 288 4.3 13.9 0.00 0.04 0.04 49 1011.4
20260502184547 52 298 4.3 13.9 0.00 0.04 0.04 51 1011.7
20260502184029 52 288 5.2 17.4 0.00 0.04 0.04 49 1011.5
20260502183503 51 331 7.8 17.4 0.00 0.04 0.04 49 1011.7
20260502183040 52 298 5.2 15.6 0.00 0.04 0.04 47 1011.5
20260502182511 52 267 4.3 20.0 0.00 0.04 0.04 47 1011.5
20260502182047 52 338 7.0 20.0 0.00 0.04 0.04 48 1011.4
20260502181530 52 355 4.3 12.2 0.00 0.04 0.04 48 1011.4
20260502181008 52 317 2.6 7.8 0.00 0.04 0.04 55 1011.4
20260502180532 52 301 2.6 10.4 0.00 0.04 0.04 50 1011.3
20260502164053 50 22 1.7 10.4 0.00 0.04 0.04 57 1011.5
20260502163534 50 355 1.7 10.4 0.00 0.04 0.04 60 1011.6
20260502163010 50 350 3.5 9.6 0.00 0.04 0.04 59 1011.6
20260502162540 50 5 0.9 12.2 0.00 0.04 0.04 60 1011.7
20260502162021 49 295 4.3 13.0 0.00 0.04 0.04 57 1011.7
20260502161557 50 273 2.6 13.0 0.00 0.04 0.04 60 1011.8
20260502161031 50 286 2.6 9.6 0.00 0.04 0.04 61 1011.7
20260502160534 50 338 2.6 9.6 0.00 0.04 0.04 65 1011.6
20260502152023 48 271 1.7 12.2 0.00 0.04 0.04 67 1011.9
20260502151611 49 351 4.3 12.2 0.00 0.04 0.04 67 1011.7
20260502151035 49 290 3.5 10.4 0.00 0.04 0.04 67 1011.7
20260502150517 48 313 1.7 12.2 0.00 0.04 0.04 70 1011.8
20260502130548 45 274 3.5 11.3 0.00 0.04 0.04 78 1012.0
20260502123559 44 336 1.7 10.4 0.00 0.04 0.04 84 1012.0
20260502123501 44 330 3.5 10.4 0.00 0.04 0.04 84 1012.0
20260502123022 43 283 1.7 7.0 0.00 0.04 0.04 87 1012.0
20260502122555 43 317 0.9 7.0 0.00 0.04 0.04 87 1012.0
20260502122017 43 313 0.9 7.8 0.00 0.04 0.04 88 1012.1
20260502121554 43 292 0.9 6.1 0.00 0.04 0.04 89 1012.0
20260502121013 43 284 2.6 6.1 0.00 0.04 0.04 89 1012.1
20260502120549 42 284 0.9 7.8 0.00 0.04 0.04 90 1012.2
20260502115545 42 292 0.9 6.1 0.00 0.04 0.04 91 1012.0
20260502115100 42 319 0.0 8.7 0.00 0.04 0.04 91 1012.0
20260502115002 42 342 1.7 8.7 0.00 0.04 0.04 91 1012.0
20260502114539 42 347 2.6 8.7 0.00 0.04 0.04 90 1012.1
20260502114058 42 298 0.9 7.8 0.00 0.04 0.04 91 1012.2
20260502113540 42 314 0.0 7.8 0.00 0.04 0.04 91 1012.2
20260502113056 42 310 0.0 7.0 0.00 0.04 0.04 91 1012.2
20260502112538 41 315 0.9 6.1 0.00 0.04 0.04 92 1012.0
20260502112058 41 297 0.9 7.0 0.00 0.04 0.04 92 1011.9
20260502111536 41 293 1.7 6.1 0.00 0.04 0.04 92 1011.8
20260502111011 41 321 0.9 7.0 0.00 0.04 0.04 92 1011.8
20260502110549 41 284 0.9 7.0 0.00 0.04 0.04 92 1011.8
20260502110023 41 263 0.9 7.0 0.00 0.04 0.04 92 1011.7
20260502105558 41 5 0.9 5.2 0.00 0.04 0.04 92 1011.8
20260502105502 41 267 0.0 3.5 0.00 0.04 0.04 92 1011.7
20260502105021 41 312 0.0 7.0 0.00 0.04 0.04 92 1011.5
20260502104558 41 288 0.9 7.8 0.00 0.04 0.04 92 1011.6
20260502104019 41 281 2.6 7.8 0.00 0.04 0.04 92 1011.5
20260502103555 41 288 1.7 7.0 0.00 0.04 0.04 92 1011.5
20260502103021 41 283 1.7 6.1 0.00 0.04 0.04 92 1011.5
20260502102551 41 267 1.7 7.8 0.00 0.04 0.04 92 1011.3
20260502102015 41 318 3.5 13.0 0.00 0.04 0.04 92 1011.4
20260502101555 41 290 2.6 13.0 0.00 0.04 0.04 92 1011.4
20260502101014 41 300 2.6 6.1 0.00 0.04 0.04 92 1011.4
20260502100547 41 267 0.9 8.7 0.00 0.04 0.04 92 1011.4
20260502091528 42 278 1.7 6.1 0.01 0.04 0.04 94 1011.0
20260502091009 42 261 0.0 2.6 0.01 0.04 0.04 94 1011.0
20260502090542 42 281 0.0 1.7 0.01 0.04 0.04 94 1011.0
20260502071506 44 265 0.0 2.6 0.00 0.03 0.03 93 1010.7
20260502071026 44 266 0.9 1.7 0.00 0.03 0.03 92 1010.5
20260502070503 44 304 0.0 1.7 0.00 0.03 0.03 93 1010.4
20260502070025 45 274 0.0 2.6 0.00 0.03 0.03 93 1010.6
20260502065559 45 257 0.0 2.6 0.00 0.03 0.03 93 1010.7
20260502065501 45 257 0.0 2.6 0.00 0.03 0.03 93 1010.7
20260502065020 45 274 0.0 2.6 0.00 0.03 0.03 93 1010.9
20260502064608 45 274 0.9 2.6 0.00 0.03 0.03 93 1010.8
20260502064018 45 264 0.0 1.7 0.00 0.03 0.03 93 1010.8
20260502063553 45 257 0.0 1.7 0.00 0.03 0.03 93 1010.9
20260502063015 45 296 0.0 1.7 0.00 0.03 0.03 93 1010.8
20260502062549 45 296 0.0 1.7 0.00 0.03 0.03 93 1010.8
20260502062010 45 286 0.0 1.7 0.00 0.03 0.03 93 1010.7
20260502061542 45 286 0.0 0.0 0.00 0.03 0.03 93 1010.7
20260502061020 45 286 0.0 0.0 0.00 0.03 0.03 93 1010.4
20260502060559 45 286 0.0 0.0 0.00 0.03 0.03 93 1010.6
20260502060501 45 286 0.0 0.0 0.00 0.03 0.03 93 1010.7
20260502060039 45 286 0.0 0.9 0.00 0.03 0.03 93 1010.8
20260502055555 45 286 0.0 0.9 0.00 0.03 0.03 92 1011.0
20260502055035 45 286 0.0 0.9 0.00 0.03 0.03 92 1010.8
20260502054549 45 286 0.0 0.9 0.00 0.03 0.03 92 1010.8
20260502054030 45 286 0.0 0.9 0.00 0.03 0.03 92 1010.9
20260502053550 45 286 0.0 0.9 0.00 0.03 0.03 92 1011.0
20260502053033 45 286 0.0 0.9 0.01 0.03 0.03 92 1011.0
20260502052551 45 286 0.0 0.9 0.01 0.03 0.03 92 1011.0
20260502052025 45 286 0.0 0.9 0.02 0.03 0.03 91 1011.0
20260502051559 45 286 0.0 0.9 0.03 0.03 0.03 91 1011.1
20260502051018 45 286 0.0 0.9 0.03 0.03 0.03 91 1011.1